Location: Alsip
(41.6689°N, 87.7387°W)
Time: 13:59:44
(UTC+00:00)

Cosmos 2082 Rocket - Pass Details

Date: 14 July 2020
Orbit: 833 x 853 km, 71.0° (Epoch: 04 August)

Event Time Altitude Azimuth Distance (km) Brightness Sun altitude
Exits shadow 09:10:01 15° 245° (WSW) 2,120 3.7 -12.6°
Maximum altitude 09:14:02 34° 303° (WNW) 1,375 3.2 -12.0°
Drops below altitude 10° 09:19:12 10° 8° (N) 2,487 5.4 -11.3°
Sets 09:21:54 0° 17° (NNE) 3,424 6.5 -11.0°
